Powrót do katalogu

WESTFORD NEEDLES

AktywnyPO
NORAD 2380·DEBRIS·🇺🇸 United States

Wystrzelony May 9, 1963 z Vandenberg Space Force Base

Loading…

Następne Przeloty (najbliższe 24 godziny)

TLE

ŚwieżeSource: Space-Track

Epoka: Sep 14, 2026, 10:36 UTC

1 02380U 63014AA  26257.44216490  .00000016  00000-0  42572-2 0  9998
2 02380  87.1969  68.5896 0610629  65.8671 300.4804  8.68486218398824

Śledź WESTFORD NEEDLES w czasie rzeczywistym z AllMySat

Download on the App Store